sat.trackr.live / text

‹ back to catalog

DUBAISAT-2

NORAD 39419 · 2013-066D

PAYLOAD ACTIVE UNKNOWN

§ Identity

Operator
Country
UAE
Launch date
2013-11-21
Launch site
DLS
Launch vehicle
Mass (kg)
RCS (m²)
1.78

Purposes: earth_obs

External: N2YO · Heavens-Above · Gunter

§ Orbital elements

Epoch: 2026-09-20T04:47:51.010944Z

Period
95.32 min
Inclination
97.4662°
Eccentricity
0.0012779
Mean motion
15.10753173 rev/d
Perigee alt
525.1 km
Apogee alt
542.7 km
Semi-major
6,912.0 km
B*
1.2305e-4
RAAN
250.9422°
Arg perigee
69.3320°
Mean anomaly
290.9279°
Rev number
70,073

§ Raw data

DUBAISAT-21 39419U 13066D   26263.19989596  .00001981  00000+0  12305-3 0  99992 39419  97.4662 250.9422 0012779  69.3320 290.9279 15.10753173700733

JSON: /api/v1/satellites/39419 · /tle

For live sub-satellite position, see the globe view (requires WebGL).

§ Visibility from observer

Set your observer location to see the next 7 days of passes ≥ 10°. The values pass through the URL so the page stays shareable.

No JS? Fill the form by hand. The geolocation button needs JavaScript.